Location: ??????
(36.0418°N, 43.6351°E)
Time: 07:21:08
(UTC+00:00)

Meteor 1-20 Rocket - Visible Passes

Search period start: 20 June 2021 00:00
Search period end: 30 June 2021 00:00
Orbit: 818 x 893 km, 81.2° (Epoch: 19 June)

Date Brightness Start Highest point End Pass type
(mag) Time Alt. Az. Time Alt. Az. Time Alt. Az.
20 Jun 5.4 00:42:25 10° SSE 00:47:35 41° E 00:52:41 10° NNE visible
21 Jun 5.5 00:31:58 10° SSE 00:37:03 38° E 00:42:05 10° NNE visible
22 Jun 5.6 00:21:31 10° SSE 00:26:31 36° E 00:31:28 10° NNE visible
23 Jun 5.6 00:11:05 10° SSE 00:15:59 34° E 00:20:52 10° NNE visible
24 Jun 5.7 00:00:38 10° SSE 00:05:27 32° E 00:10:14 10° NNE visible
24 Jun 5.8 23:50:12 10° SSE 23:54:55 30° E 23:59:37 10° NNE visible
25 Jun 5.8 23:39:47 10° SSE 23:44:24 28° E 23:49:00 10° NNE visible
26 Jun 5.1 01:22:31 10° SW 01:27:17 30° WNW 01:32:02 10° NNW visible
26 Jun 5.9 23:29:22 10° SE 23:33:52 27° E 23:38:21 10° NE visible
27 Jun 5.0 01:11:52 10° SW 01:16:42 31° WNW 01:21:33 10° NNW visible
27 Jun 6.0 23:19:16 11° SE 23:23:20 25° E 23:27:43 10° NE visible
28 Jun 5.0 01:01:24 11° SW 01:06:08 33° WNW 01:11:03 10° NNW visible
28 Jun 6.0 23:09:14 13° SE 23:12:49 24° E 23:17:04 10° NE visible
29 Jun 4.9 00:51:23 14° SW 00:55:34 35° WNW 01:00:33 10° N visible
29 Jun 6.1 22:59:10 14° SE 23:02:17 22° E 23:06:24 10° NE visible
